OPTUS D1

Last updated on Thu Nov 21 2024 00:02:40 GMT+0000 (Coordinated Universal Time)

1 29495U 06043B 24325.62972159 -.00000181 00000+0 00000+0 0 9998 2 29495 1.5495 86.7879 0003957 154.0240 198.0478 1.00272664 66366
UTC large
Height (km)
Speed (km/s)
/
Latitude / Longitude
Inclination (degrees)
Orbital Period (minutes)
Azimuth
Elevation
Range (km)
Doppler Factor

Next 0 passes for location: London (51.5072 / 0.1276)

Sorry there are no passes over London.